Time,TemperatureF,DewpointF,PressureIn,WindDirection,WindDirectionDegrees,WindSpeedMPH,WindSpeedGustMPH,Humidity,HourlyPrecipIn,Conditions,Clouds,dailyrainin,SolarRadiationWatts/m^2,SoftwareType,DateUTC
2013-03-06 00:00:00,25.0,21.0,-100.00,ENE,67,3.0,-999.0,87,-99.99,,,-99.99,0.000000,,2013-03-06 05:00:00,
2013-03-06 00:42:00,25.0,21.0,-100.00,ENE,67,3.0,-999.0,87,-99.99,,,-99.99,0.000000,,2013-03-06 05:42:00,
2013-03-06 00:52:00,25.0,21.0,-100.00,ENE,67,3.0,-999.0,87,-99.99,,,-99.99,0.000000,,2013-03-06 05:52:00,
2013-03-06 01:00:00,25.0,22.0,-100.00,ESE,112,2.0,-999.0,86,-99.99,,,-99.99,0.000000,,2013-03-06 06:00:00,
2013-03-06 01:32:00,25.0,22.0,-100.00,ESE,112,2.0,-999.0,86,-99.99,,,-99.99,0.000000,,2013-03-06 06:32:00,
2013-03-06 01:42:00,25.0,22.0,-100.00,ESE,112,2.0,-999.0,86,-99.99,,,-99.99,0.000000,,2013-03-06 06:42:00,
2013-03-06 01:52:00,25.0,22.0,-100.00,ESE,112,2.0,-999.0,86,-99.99,,,-99.99,0.000000,,2013-03-06 06:52:00,
2013-03-06 02:00:00,26.0,23.0,-100.00,ESE,112,2.0,-999.0,87,-99.99,,,-99.99,0.000000,,2013-03-06 07:00:00,
2013-03-06 02:42:00,26.0,23.0,-100.00,ESE,112,2.0,-999.0,87,-99.99,,,-99.99,0.000000,,2013-03-06 07:42:00,
2013-03-06 02:52:00,26.0,23.0,-100.00,ESE,112,2.0,-999.0,87,-99.99,,,-99.99,0.000000,,2013-03-06 07:52:00,
2013-03-06 03:00:00,26.0,23.0,-100.00,ESE,112,2.0,-999.0,86,-99.99,,,-99.99,0.000000,,2013-03-06 08:00:00,
2013-03-06 03:42:00,26.0,23.0,-100.00,ESE,112,2.0,-999.0,86,-99.99,,,-99.99,0.000000,,2013-03-06 08:42:00,
2013-03-06 03:52:00,26.0,23.0,-100.00,ESE,112,2.0,-999.0,86,-99.99,,,-99.99,0.000000,,2013-03-06 08:52:00,
2013-03-06 04:00:00,27.0,23.0,-100.00,East,90,2.0,-999.0,84,-99.99,,,-99.99,0.000000,,2013-03-06 09:00:00,
2013-03-06 04:42:00,27.0,23.0,-100.00,East,90,2.0,-999.0,84,-99.99,,,-99.99,0.000000,,2013-03-06 09:42:00,
2013-03-06 04:52:00,27.0,23.0,-100.00,East,90,2.0,-999.0,84,-99.99,,,-99.99,0.000000,,2013-03-06 09:52:00,
2013-03-06 05:00:00,28.0,23.0,-100.00,East,90,3.0,-999.0,83,-99.99,,,-99.99,0.000000,,2013-03-06 10:00:00,
2013-03-06 05:42:00,28.0,23.0,-100.00,East,90,3.0,-999.0,83,-99.99,,,-99.99,0.000000,,2013-03-06 10:42:00,
2013-03-06 05:52:00,28.0,23.0,-100.00,East,90,3.0,-999.0,83,-99.99,,,-99.99,0.000000,,2013-03-06 10:52:00,
2013-03-06 06:00:00,28.0,22.0,-100.00,East,90,3.0,-999.0,80,-99.99,,,-99.99,0.000000,,2013-03-06 11:00:00,
2013-03-06 06:43:00,28.0,22.0,-100.00,East,90,3.0,-999.0,80,-99.99,,,-99.99,0.000000,,2013-03-06 11:43:00,
2013-03-06 06:52:00,28.0,22.0,-100.00,East,90,3.0,-999.0,80,-99.99,,,-99.99,0.000000,,2013-03-06 11:52:00,
2013-03-06 07:00:00,27.0,22.0,-100.00,East,90,2.0,-999.0,81,-99.99,,,-99.99,0.000000,,2013-03-06 12:00:00,
2013-03-06 07:43:00,27.0,22.0,-100.00,East,90,2.0,-999.0,81,-99.99,,,-99.99,0.000000,,2013-03-06 12:43:00,
2013-03-06 07:53:00,27.0,22.0,-100.00,East,90,2.0,-999.0,81,-99.99,,,-99.99,0.000000,,2013-03-06 12:53:00,
2013-03-06 08:00:00,27.0,22.0,-100.00,ESE,112,1.0,-999.0,81,-99.99,,,-99.99,17.400000,,2013-03-06 13:00:00,
2013-03-06 08:42:00,27.0,22.0,-100.00,ESE,112,1.0,-999.0,81,-99.99,,,-99.99,17.400000,,2013-03-06 13:42:00,
2013-03-06 08:52:00,27.0,22.0,-100.00,ESE,112,1.0,-999.0,81,-99.99,,,-99.99,17.400000,,2013-03-06 13:52:00,
2013-03-06 09:00:00,29.0,23.0,-100.00,ESE,112,1.0,-999.0,79,-99.99,,,-99.99,66.120003,,2013-03-06 14:00:00,
2013-03-06 09:42:00,29.0,23.0,-100.00,ESE,112,1.0,-999.0,79,-99.99,,,-99.99,66.120003,,2013-03-06 14:42:00,
2013-03-06 09:53:00,29.0,23.0,-100.00,ESE,112,1.0,-999.0,79,-99.99,,,-99.99,66.120003,,2013-03-06 14:53:00,
2013-03-06 10:00:00,30.0,24.0,-100.00,ESE,112,1.0,-999.0,78,-99.99,,,-99.99,125.279999,,2013-03-06 15:00:00,
2013-03-06 10:42:00,30.0,24.0,-100.00,ESE,112,1.0,-999.0,78,-99.99,,,-99.99,125.279999,,2013-03-06 15:42:00,
2013-03-06 10:52:00,30.0,24.0,-100.00,ESE,112,1.0,-999.0,78,-99.99,,,-99.99,125.279999,,2013-03-06 15:52:00,
2013-03-06 11:00:00,31.0,25.0,-100.00,ENE,67,3.0,-999.0,77,-99.99,,,-99.99,212.279999,,2013-03-06 16:00:00,
2013-03-06 11:42:00,31.0,25.0,-100.00,ENE,67,3.0,-999.0,77,-99.99,,,-99.99,212.279999,,2013-03-06 16:42:00,
2013-03-06 11:52:00,31.0,25.0,-100.00,ENE,67,3.0,-999.0,77,-99.99,,,-99.99,212.279999,,2013-03-06 16:52:00,
2013-03-06 12:00:00,34.0,25.0,-100.00,ESE,112,1.0,-999.0,71,-99.99,,,-99.99,303.920013,,2013-03-06 17:00:00,
2013-03-06 12:42:00,34.0,25.0,-100.00,ESE,112,1.0,-999.0,71,-99.99,,,-99.99,303.920013,,2013-03-06 17:42:00,
2013-03-06 12:53:00,34.0,25.0,-100.00,ESE,112,1.0,-999.0,71,-99.99,,,-99.99,303.920013,,2013-03-06 17:53:00,
2013-03-06 13:00:00,35.0,26.0,-100.00,SE,135,2.0,-999.0,69,-99.99,,,-99.99,327.119995,,2013-03-06 18:00:00,
2013-03-06 13:42:00,35.0,26.0,-100.00,SE,135,2.0,-999.0,69,-99.99,,,-99.99,327.119995,,2013-03-06 18:42:00,
2013-03-06 13:53:00,35.0,26.0,-100.00,SE,135,2.0,-999.0,69,-99.99,,,-99.99,327.119995,,2013-03-06 18:53:00,
2013-03-06 14:00:00,36.0,26.0,-100.00,SE,135,2.0,-999.0,66,-99.99,,,-99.99,299.279999,,2013-03-06 19:00:00,
2013-03-06 14:43:00,36.0,26.0,-100.00,SE,135,2.0,-999.0,66,-99.99,,,-99.99,299.279999,,2013-03-06 19:43:00,
2013-03-06 14:53:00,36.0,26.0,-100.00,SE,135,2.0,-999.0,66,-99.99,,,-99.99,299.279999,,2013-03-06 19:53:00,
2013-03-06 15:00:00,37.0,26.0,-100.00,SSW,202,2.0,-999.0,64,-99.99,,,-99.99,301.600006,,2013-03-06 20:00:00,
2013-03-06 15:43:00,37.0,26.0,-100.00,SSW,202,2.0,-999.0,64,-99.99,,,-99.99,301.600006,,2013-03-06 20:43:00,
2013-03-06 15:53:00,37.0,26.0,-100.00,SSW,202,2.0,-999.0,64,-99.99,,,-99.99,301.600006,,2013-03-06 20:53:00,
2013-03-06 16:00:00,36.0,26.0,-100.00,South,180,1.0,-999.0,66,-99.99,,,-99.99,165.880005,,2013-03-06 21:00:00,
2013-03-06 16:42:00,36.0,26.0,-100.00,South,180,1.0,-999.0,66,-99.99,,,-99.99,165.880005,,2013-03-06 21:42:00,
2013-03-06 16:52:00,36.0,26.0,-100.00,South,180,1.0,-999.0,66,-99.99,,,-99.99,165.880005,,2013-03-06 21:52:00,
2013-03-06 17:00:00,37.0,26.0,-100.00,SW,225,1.0,-999.0,64,-99.99,,,-99.99,164.720001,,2013-03-06 22:00:00,
2013-03-06 17:42:00,37.0,26.0,-100.00,SW,225,1.0,-999.0,64,-99.99,,,-99.99,164.720001,,2013-03-06 22:42:00,
2013-03-06 17:52:00,37.0,26.0,-100.00,SW,225,1.0,-999.0,64,-99.99,,,-99.99,164.720001,,2013-03-06 22:52:00,
2013-03-06 18:00:00,36.0,26.0,-100.00,SW,225,0.0,-999.0,67,-99.99,,,-99.99,63.799999,,2013-03-06 23:00:00,
2013-03-06 18:42:00,36.0,26.0,-100.00,SW,225,0.0,-999.0,67,-99.99,,,-99.99,63.799999,,2013-03-06 23:42:00,
2013-03-06 18:52:00,36.0,26.0,-100.00,SW,225,0.0,-999.0,67,-99.99,,,-99.99,63.799999,,2013-03-06 23:52:00,
2013-03-06 19:00:00,34.0,27.0,-100.00,South,180,1.0,-999.0,75,-99.99,,,-99.99,5.800000,,2013-03-07 00:00:00,
2013-03-06 19:32:00,34.0,27.0,-100.00,South,180,1.0,-999.0,75,-99.99,,,-99.99,5.800000,,2013-03-07 00:32:00,
2013-03-06 19:42:00,34.0,27.0,-100.00,South,180,1.0,-999.0,75,-99.99,,,-99.99,5.800000,,2013-03-07 00:42:00,
2013-03-06 19:52:00,34.0,27.0,-100.00,South,180,1.0,-999.0,75,-99.99,,,-99.99,5.800000,,2013-03-07 00:52:00,
2013-03-06 20:00:00,32.0,27.0,-100.00,SSE,157,0.0,-999.0,80,-99.99,,,-99.99,0.000000,,2013-03-07 01:00:00,
2013-03-06 20:42:00,32.0,27.0,-100.00,SSE,157,0.0,-999.0,80,-99.99,,,-99.99,0.000000,,2013-03-07 01:42:00,
2013-03-06 20:52:00,32.0,27.0,-100.00,SSE,157,0.0,-999.0,80,-99.99,,,-99.99,0.000000,,2013-03-07 01:52:00,
2013-03-06 21:00:00,32.0,27.0,-100.00,WSW,247,2.0,-999.0,79,-99.99,,,-99.99,0.000000,,2013-03-07 02:00:00,
2013-03-06 22:00:00,32.0,27.0,-100.00,WNW,292,4.0,-999.0,79,-99.99,,,-99.99,0.000000,,2013-03-07 03:00:00,
2013-03-06 22:42:00,32.0,27.0,-100.00,WNW,292,4.0,-999.0,79,-99.99,,,-99.99,0.000000,,2013-03-07 03:42:00,
2013-03-06 22:52:00,32.0,27.0,-100.00,WNW,292,4.0,-999.0,79,-99.99,,,-99.99,0.000000,,2013-03-07 03:52:00,
2013-03-06 23:00:00,32.0,26.0,-100.00,WNW,292,4.0,-999.0,80,-99.99,,,-99.99,0.000000,,2013-03-07 04:00:00,
2013-03-06 23:42:00,32.0,26.0,-100.00,WNW,292,4.0,-999.0,80,-99.99,,,-99.99,0.000000,,2013-03-07 04:42:00,
2013-03-06 23:52:00,32.0,26.0,-100.00,WNW,292,4.0,-999.0,80,-99.99,,,-99.99,0.000000,,2013-03-07 04:52:00,